Temperature
18 18 18 18 18 18 18 18 18 18 18 18 18 18 18 18 18 18 18 18 18 18 18 18 18 18 18 18 18 18 18 18 18 18 18 18 18 18 18 18 18 18 18
18 18 18 18 18 18 18 18 18 18 18 18 18 18 18 18 18 18 18 18 18 18 18 18 18 18 18 18 18 18 18 18 18 18 18 18 18 18 18 18 18 18 18
18 18 18 18 18 18 18 18 18 18 18 18 18 17 17 17 17 18 18 18 18 18 18 18 18 18 18 18 18 18 18 18 18 18 18 18 18 18 17 18 18 18 18
18 18 17 17 17 17 18 18 18 17 17 17 17 17 17 17 18 17 17 17 17 17 17 17 17 17 17 17 18 18 17 17 17 17 17 17 17 17 17 17 18 18 18
18 18 17 17 17 17 17 18 17 17 17 17 17 17 17 17 17 17 17 17 17 17 17 17 17 17 17 17 17 17 17 17 17 17 17 17 17 17 17 17 17 17 17
18 18 17 17 17 17 17 17 17 17 17 17 17 17 17 17 17 17 17 17 17 17 17 17 17 17 17 17 17 17 17 17 17 17 17 17 17 17 17 17 17 17 17
18 18 17 17 17 17 17 17 17 17 17 17 17 17 17 17 17 17 17 17 17 17 17 17 17 17 17 17 17 17 17 17 17 17 17 17 17 17 17 17 17 17 17
18 18 17 17 17 17 17 17 17 17 17 17 17 17 17 17 17 17 17 17 17 17 17 17 17 17 17 17 17 16 16 16 16 17 16 16 16 16 16 17 17 17 17
18 17 17 17 17 17 17 17 17 17 17 17 17 17 17 17 17 17 17 17 17 17 17 17 16 16 16 16 16 16 16 16 16 16 16 16 16 16 16 16 16 16 17
18 17 17 17 17 17 17 17 17 17 17 17 17 17 17 17 17 17 17 17 17 17 16 16 16 16 16 16 16 16 16 16 16 16 16 16 16 16 16 16 16 16 16
18 18 17 17 17 17 17 17 17 17 17 17 17 17 17 17 17 17 17 16 16 16 16 16 16 16 16 16 16 16 16 16 16 16 16 16 16 16 16 16 16 16 16
18 18 17 17 17 17 17 17 17 17 17 17 17 17 16 16 16 16 16 16 16 16 16 16 16 16 16 16 16 16 16 16 16 16 16 16 16 16 16 16 16 16 16
18 18 17 17 17 17 17 17 17 17 17 16 16 16 16 16 16 16 16 16 16 16 16 16 16 16 16 16 16 16 16 16 16 16 16 16 16 16 16 16 16 16 16
18 18 18 17 17 17 17 17 17 17 16 16 16 16 16 16 16 16 16 16 16 16 16 16 16 16 16 16 15 16 16 15 15 15 15 15 15 15 15 15 15 15 15
18 18 18 17 17 17 17 17 17 17 16 16 16 16 16 16 16 16 16 16 16 15 15 15 15 15 15 15 15 15 15 15 15 15 15 15 15 15 15 15 15 15 15
18 18 18 17 17 17 17 17 17 16 16 16 16 16 16 16 16 16 16 15 15 15 15 15 15 15 15 15 15 15 15 15 15 15 15 15 15 15 15 15 15 15 15
18 18 18 17 17 17 17 17 16 16 16 16 16 16 16 16 16 15 15 15 15 15 15 15 15 15 15 15 15 15 15 15 15 15 15 15 15 15 15 14 14 14 14
18 18 18 17 17 17 17 17 16 16 16 16 16 16 16 16 16 15 15 15 15 15 15 15 15 15 15 15 15 15 15 14 14 14 14 14 14 14 14 14 14 14 14
18 18 17 17 17 17 17 16 16 16 16 16 16 16 16 16 16 15 15 15 15 15 15 15 15 15 15 15 15 14 14 14 14 14 14 14 14 14 14 14 14 14 14
18 18 17 17 17 17 17 16 16 16 16 16 16 16 16 16 15 15 15 15 15 15 15 15 14 14 14 14 14 14 14 14 14 14 14 14 14 14 14 14 14 14 14
18 18 18 17 17 17 17 16 16 16 16 16 16 16 16 15 15 15 15 15 15 15 15 14 14 14 14 14 14 14 14 14 14 13 13 13 13 13 13 13 13 13 13
18 18 18 17 17 17 17 17 16 16 16 16 16 16 15 15 15 15 15 15 15 15 14 14 14 14 14 14 14 13 13 13 13 13 13 13 13 13 13 13 13 13 13
18 18 18 17 17 17 17 17 16 16 16 16 16 16 15 15 15 15 15 15 15 15 14 14 14 14 14 14 14 13 13 13 13 13 13 13 13 13 13 13 13 13 13
18 18 18 17 17 17 17 16 16 16 16 16 16 16 15 15 15 15 15 15 15 14 14 14 14 14 13 13 13 13 13 13 13 13 13 13 13 13 13 13 13 13 13
18 18 18 17 17 17 17 16 16 16 16 16 15 15 15 15 15 15 15 14 14 14 14 14 14 14 13 13 13 13 13 13 13 13 12 13 13 13 13 12 12 12 13
18 18 17 17 17 17 16 16 16 16 16 16 15 15 15 15 15 15 15 14 14 14 14 14 14 14 13 13 13 13 13 13 13 13 12 12 12 13 13 12 12 12 12
Wind_Speed
2 3 3 5 6 7 8 9 9 8 8 9 11 11 11 11 11 12 11 11 11 11 12 12 12 13 13 13 14 14 13 12 12 11 11 11 11 10 9 9 8 7 7
1 1 3 5 7 8 8 9 9 8 8 9 10 11 11 11 11 11 11 12 12 12 12 12 12 13 13 13 13 14 14 13 13 12 11 10 10 9 9 9 8 6 7
1 1 2 4 6 8 8 9 10 11 10 10 10 11 11 11 11 11 11 11 12 12 12 13 12 12 12 13 13 13 13 13 13 12 11 9 8 9 9 9 8 8 8
2 1 2 4 6 8 9 9 10 11 12 11 11 11 11 11 11 11 11 11 11 12 12 12 12 12 12 12 12 13 13 13 12 11 9 8 8 9 9 9 9 9 9
2 2 3 5 6 7 8 9 10 11 11 11 11 11 11 10 10 10 10 11 11 12 12 12 12 12 12 12 12 12 12 12 12 11 9 8 7 9 9 9 9 9 10
3 3 4 6 6 7 8 9 9 10 10 10 11 11 11 11 10 10 11 11 11 11 12 11 12 12 12 12 12 12 12 12 10 9 8 8 7 9 10 9 9 10 10
3 3 4 5 6 7 8 8 9 10 10 10 10 10 11 11 11 11 10 10 10 10 11 11 12 12 12 12 12 12 12 11 10 8 8 7 8 10 10 10 10 11 11
3 3 4 5 6 6 8 8 9 9 9 10 10 10 10 11 11 11 10 10 10 10 11 11 11 12 12 12 12 12 12 10 9 8 7 7 9 10 11 11 11 11 11
3 4 4 4 5 6 7 7 8 9 9 9 10 10 10 11 11 11 11 11 10 10 11 11 12 11 12 12 12 12 12 12 9 7 7 6 8 9 10 10 10 10 10
3 3 3 4 4 5 5 7 7 8 8 9 9 10 10 10 10 10 11 11 11 11 11 11 12 12 12 12 13 13 12 11 9 8 6 7 9 9 9 9 9 9 10
2 2 2 2 3 4 4 5 6 7 7 8 8 9 9 9 9 9 10 11 11 11 11 11 12 12 12 12 13 13 11 8 8 7 7 8 9 9 9 9 9 9 10
1 0 1 1 2 2 3 5 5 6 6 7 7 7 8 8 8 8 10 10 11 11 12 12 13 12 11 9 10 11 8 9 8 6 7 10 9 9 9 10 10 10 10
2 1 1 1 1 1 2 3 4 5 5 5 6 6 6 7 7 8 7 8 9 10 9 10 10 9 8 7 7 8 8 8 7 7 8 10 10 10 11 11 11 10 10
2 2 1 2 1 1 2 2 3 3 3 3 4 5 5 4 4 4 5 6 6 6 6 6 6 7 8 8 7 7 8 7 7 7 9 11 11 11 11 11 10 10 10
2 2 2 2 2 2 2 2 2 2 2 3 3 4 4 3 3 3 4 5 5 5 5 4 5 6 6 6 7 7 7 7 8 8 9 12 12 11 11 10 10 10 11
4 3 2 2 2 2 2 2 2 2 3 3 3 3 4 4 3 3 3 3 4 4 4 4 4 4 4 5 5 6 6 6 7 8 8 10 11 11 11 10 9 10 10
4 3 3 3 3 3 2 2 2 3 4 3 2 3 4 4 4 3 2 2 3 4 5 5 5 5 4 5 5 5 5 6 6 7 8 8 9 10 11 10 9 8 9
4 3 3 3 4 3 2 2 2 3 3 2 2 3 3 4 4 3 2 2 3 4 4 3 3 4 4 4 4 4 4 5 6 6 7 8 8 8 10 11 10 9 8
4 4 3 3 4 4 3 2 2 2 3 2 2 2 3 3 4 4 2 2 3 3 3 3 3 2 3 3 3 3 4 4 4 6 6 7 8 8 8 9 10 10 9
3 3 3 3 4 4 3 2 2 2 2 2 2 2 3 3 3 4 3 3 3 3 3 3 3 3 2 2 3 4 3 3 4 4 4 5 6 7 7 8 8 8 9
3 3 3 3 3 4 2 2 2 1 1 1 1 2 3 3 3 3 3 2 2 2 2 3 2 3 2 2 3 3 4 3 3 3 3 3 5 6 6 7 6 6 6
4 4 4 4 3 3 3 2 2 2 1 1 1 2 2 3 3 3 3 2 2 2 2 2 3 2 1 2 2 2 2 4 3 3 3 2 3 4 4 5 5 5 5
5 5 5 4 3 3 3 3 3 3 2 2 1 1 1 2 2 3 3 3 2 2 2 2 2 3 1 1 2 2 2 1 2 3 3 2 3 3 3 3 4 4 4
6 4 4 4 3 3 3 4 4 3 2 2 1 1 1 2 2 3 3 3 2 2 2 2 2 2 3 1 1 1 1 2 1 2 3 3 3 2 3 3 3 3 3
4 4 4 3 3 2 3 4 4 3 2 1 1 1 1 1 1 2 3 3 2 2 2 2 2 2 2 2 2 1 1 2 1 1 2 3 3 2 2 2 2 2 3
3 3 3 4 3 3 3 3 4 3 3 3 2 1 1 0 0 1 2 2 2 2 2 2 2 2 2 2 2 2 2 2 1 2 2 2 3 3 3 2 2 2 3
Wind_Direction
294 302 28 66 70 71 69 67 69 70 74 81 89 88 85 83 84 82 81 80 79 78 78 76 75 73 73 73 75 77 79 81 81 79 77 83 91 96 99 100 97 95 102
242 335 59 74 76 73 70 66 66 70 80 83 88 90 87 85 85 84 82 80 78 76 75 76 75 74 73 73 74 76 77 78 76 74 73 76 83 89 94 97 98 95 98
99 61 90 86 83 77 73 71 72 73 84 85 88 88 86 84 85 83 81 80 79 77 76 76 75 75 74 74 75 76 75 73 72 69 68 64 73 84 88 92 95 91 88
118 83 101 96 90 81 77 75 77 77 81 82 84 85 86 84 83 81 78 79 78 77 76 75 75 74 74 74 74 77 75 73 72 70 62 57 61 78 82 85 87 84 79
86 68 84 93 91 88 81 80 80 78 81 82 81 83 82 81 79 78 77 78 79 79 75 73 73 72 70 70 73 76 75 74 73 67 59 52 55 70 76 77 79 80 79
73 66 83 89 88 87 85 84 85 84 85 83 81 80 79 78 78 77 78 77 77 77 74 72 71 69 67 68 72 76 75 73 70 63 58 54 58 69 71 73 77 78 78
82 67 82 88 86 88 89 88 89 89 87 84 82 80 80 78 75 74 76 77 77 75 73 71 70 68 67 69 71 74 75 73 69 63 56 56 63 66 67 70 74 74 76
90 69 69 79 80 83 88 90 90 88 86 82 79 77 78 78 76 73 72 76 77 76 73 70 69 68 68 72 71 71 72 70 66 63 56 57 66 68 68 70 71 70 72
81 67 55 60 62 74 85 87 87 87 86 82 78 75 75 73 71 69 68 71 72 70 69 65 65 66 67 69 68 69 68 66 59 54 57 60 68 70 71 75 75 74 73
71 64 58 54 52 54 67 80 84 84 82 80 77 74 71 67 64 64 62 65 66 65 65 64 63 63 63 65 64 65 63 59 51 49 48 59 67 71 74 75 77 76 76
77 50 63 59 47 50 65 75 74 75 75 74 72 73 67 56 52 53 56 62 65 66 65 63 63 63 63 62 62 62 57 52 48 47 46 57 64 70 75 77 78 77 75
173 217 88 85 59 52 69 70 65 66 66 68 69 69 65 59 52 52 52 58 61 62 62 62 62 59 58 56 58 57 54 49 45 44 49 55 61 67 72 74 76 76 74
186 164 145 147 92 72 64 76 70 69 69 67 68 70 69 61 51 46 46 46 51 56 54 53 54 52 53 57 58 56 53 50 43 42 45 54 58 63 67 69 72 74 74
157 176 152 146 125 100 86 85 93 86 83 78 71 77 75 64 50 45 47 45 48 53 54 52 55 55 54 54 58 57 52 50 44 39 42 51 56 59 64 66 69 71 73
172 183 166 151 143 113 94 91 106 109 107 101 87 86 89 85 67 55 51 50 50 58 61 59 59 58 55 52 53 55 51 48 44 43 41 47 53 56 60 64 65 65 66
190 188 161 150 143 115 104 99 105 114 108 99 91 94 99 95 87 75 60 51 49 55 66 74 70 64 58 58 50 48 49 48 47 46 43 41 46 49 53 59 63 65 64
192 179 160 155 129 126 121 110 109 118 114 112 105 101 107 107 101 91 78 60 51 61 70 73 69 66 60 55 46 41 46 46 46 43 42 40 40 43 46 51 55 59 60
173 165 168 160 134 132 119 113 111 112 112 112 114 113 113 112 111 101 95 76 73 75 76 70 63 61 54 47 39 31 35 42 43 44 43 40 39 38 41 43 46 49 51
173 164 158 148 143 143 131 118 114 108 103 106 110 114 117 114 119 113 105 90 83 79 70 81 65 72 70 50 42 36 28 33 34 44 41 39 40 40 38 38 40 42 46
153 145 142 146 142 136 124 106 86 80 81 82 96 108 120 118 120 115 107 91 90 86 71 75 80 62 73 65 57 40 28 27 35 32 27 35 36 37 38 36 35 37 41
137 136 141 144 151 140 137 143 134 141 139 78 94 107 117 118 121 117 112 102 97 100 106 104 97 81 58 60 64 29 15 26 39 25 25 32 28 29 35 32 31 35 33
173 167 164 169 157 162 162 156 151 145 138 136 51 79 101 116 123 127 126 128 117 108 97 98 102 101 72 61 95 80 14 358 4 15 18 24 13 22 26 23 26 29 29
187 185 184 183 173 168 143 114 92 73 57 51 36 27 52 119 124 124 133 133 135 137 144 143 129 123 133 48 68 118 123 246 316 340 357 6 2 9 2 8 18 15 17
202 188 178 177 173 173 148 143 145 155 174 202 193 184 76 100 120 131 135 135 141 141 148 167 145 141 145 144 60 53 131 158 151 323 332 343 347 349 339 351 359 3 9
194 181 174 163 164 165 160 156 159 164 178 157 116 107 84 63 100 125 136 134 145 155 165 159 148 157 162 164 160 134 84 63 107 161 293 321 334 322 323 323 330 344 354
167 165 160 153 161 155 155 155 156 159 155 134 136 148 176 157 83 140 148 151 160 173 182 183 175 176 177 167 168 160 157 160 183 169 219 283 301 307 313 312 316 320 333
Height
1517 1516 1515 1514 1514 1513 1512 1511 1510 1509 1509 1510 1510 1511 1511 1511 1512 1511 1511 1511 1511 1510 1510 1510 1509 1508 1508 1507 1505 1505 1505 1506 1506 1506 1505 1504 1505 1507 1510 1511 1512 1513 1514
1517 1517 1516 1515 1515 1514 1513 1512 1510 1509 1509 1510 1511 1512 1513 1513 1513 1513 1513 1513 1513 1512 1512 1511 1511 1511 1510 1510 1509 1509 1509 1509 1509 1509 1509 1508 1509 1510 1511 1512 1513 1514 1514
1518 1518 1517 1517 1516 1516 1515 1514 1512 1510 1509 1511 1512 1513 1514 1514 1514 1514 1514 1514 1514 1514 1514 1514 1513 1513 1513 1513 1512 1512 1512 1512 1512 1512 1512 1512 1512 1513 1513 1514 1514 1515 1515
1519 1519 1519 1518 1518 1517 1516 1515 1514 1513 1513 1513 1514 1515 1515 1515 1516 1516 1516 1516 1516 1516 1516 1516 1515 1515 1515 1515 1515 1514 1514 1514 1514 1514 1514 1514 1514 1515 1515 1516 1516 1516 1516
1521 1521 1520 1520 1519 1519 1518 1517 1517 1516 1516 1516 1516 1516 1516 1517 1517 1517 1517 1518 1518 1518 1517 1517 1517 1517 1517 1517 1517 1517 1516 1516 1516 1516 1516 1516 1516 1517 1517 1517 1517 1517 1517
1522 1522 1522 1521 1521 1520 1520 1519 1519 1518 1518 1518 1519 1518 1519 1519 1519 1519 1519 1519 1519 1519 1519 1519 1519 1519 1519 1519 1518 1518 1518 1518 1518 1518 1518 1518 1518 1518 1518 1518 1519 1519 1519
1524 1524 1523 1523 1522 1522 1522 1521 1521 1521 1521 1521 1521 1521 1521 1521 1521 1521 1521 1521 1521 1521 1521 1521 1521 1520 1520 1520 1520 1520 1520 1520 1520 1520 1520 1520 1520 1520 1520 1520 1520 1520 1520
1525 1525 1525 1525 1524 1524 1524 1523 1523 1523 1523 1523 1523 1523 1523 1523 1523 1523 1523 1523 1523 1523 1523 1522 1522 1522 1522 1521 1521 1521 1521 1521 1521 1522 1522 1522 1522 1522 1522 1521 1521 1521 1522
1527 1527 1526 1526 1526 1526 1525 1525 1525 1525 1525 1525 1525 1525 1525 1525 1525 1525 1525 1524 1524 1524 1524 1524 1524 1523 1523 1523 1523 1523 1523 1523 1523 1523 1523 1523 1523 1523 1523 1523 1523 1523 1523
1528 1528 1528 1527 1527 1527 1527 1527 1527 1527 1527 1527 1527 1527 1527 1527 1527 1527 1527 1527 1526 1526 1525 1526 1525 1525 1525 1525 1525 1525 1525 1525 1525 1525 1525 1525 1525 1524 1524 1524 1524 1524 1524
1529 1529 1529 1529 1529 1528 1528 1528 1528 1528 1529 1529 1529 1529 1529 1529 1529 1529 1529 1528 1528 1528 1528 1528 1527 1527 1527 1527 1527 1527 1527 1526 1526 1526 1526 1526 1526 1525 1525 1525 1525 1525 1525
1529 1530 1530 1530 1529 1529 1529 1529 1529 1530 1530 1530 1531 1531 1531 1531 1531 1531 1531 1530 1530 1530 1530 1529 1529 1529 1529 1529 1529 1529 1528 1528 1528 1528 1527 1527 1527 1527 1526 1526 1526 1526 1526
1530 1530 1530 1531 1530 1530 1530 1530 1530 1530 1531 1532 1532 1532 1533 1533 1533 1532 1532 1532 1532 1532 1531 1531 1531 1531 1531 1531 1531 1530 1530 1530 1529 1529 1529 1529 1528 1528 1527 1527 1527 1527 1527
1531 1531 1531 1531 1531 1531 1530 1530 1530 1531 1532 1533 1533 1534 1534 1534 1534 1534 1534 1534 1534 1533 1533 1533 1533 1533 1533 1533 1533 1532 1532 1531 1531 1531 1530 1530 1529 1529 1529 1529 1528 1528 1528
1531 1531 1531 1532 1532 1531 1531 1531 1531 1532 1533 1534 1535 1535 1535 1535 1535 1535 1535 1535 1535 1535 1535 1535 1535 1535 1534 1534 1534 1534 1533 1533 1533 1532 1532 1532 1531 1531 1531 1530 1530 1530 1530
1531 1532 1532 1532 1532 1532 1532 1532 1532 1533 1534 1535 1536 1536 1536 1537 1537 1537 1537 1537 1537 1537 1536 1536 1536 1536 1536 1536 1535 1535 1535 1535 1534 1534 1533 1533 1533 1532 1532 1532 1531 1531 1531
1531 1532 1532 1533 1533 1533 1533 1533 1533 1534 1535 1536 1537 1537 1537 1538 1538 1538 1538 1538 1538 1538 1538 1538 1537 1537 1537 1537 1536 1536 1536 1536 1535 1535 1535 1534 1534 1534 1533 1533 1533 1532 1532
1531 1532 1532 1533 1533 1534 1534 1534 1535 1535 1536 1537 1537 1538 1538 1538 1538 1538 1539 1538 1539 1539 1538 1538 1538 1538 1537 1537 1537 1537 1537 1536 1536 1536 1535 1535 1535 1534 1534 1533 1533 1533 1533
1531 1531 1532 1533 1533 1534 1535 1535 1536 1536 1537 1537 1538 1538 1539 1539 1539 1539 1539 1539 1539 1539 1539 1539 1539 1538 1538 1537 1537 1537 1537 1537 1537 1537 1536 1536 1535 1535 1535 1534 1534 1534 1533
1530 1531 1532 1533 1534 1534 1535 1536 1536 1537 1537 1538 1538 1539 1539 1539 1539 1540 1540 1540 1540 1539 1539 1539 1539 1539 1538 1538 1538 1538 1538 1537 1537 1537 1537 1536 1536 1536 1535 1535 1535 1534 1534
1530 1530 1531 1532 1533 1534 1535 1535 1536 1536 1537 1538 1538 1539 1539 1539 1540 1539 1539 1540 1540 1539 1539 1539 1539 1539 1538 1538 1538 1538 1538 1538 1538 1537 1537 1537 1537 1536 1535 1535 1535 1534 1534
1529 1530 1530 1532 1533 1533 1534 1535 1536 1536 1537 1537 1538 1538 1539 1539 1539 1539 1539 1539 1539 1539 1539 1539 1539 1538 1538 1538 1538 1537 1537 1539 1538 1537 1537 1537 1537 1536 1535 1535 1535 1534 1534
1528 1529 1530 1531 1532 1533 1534 1535 1535 1536 1536 1537 1537 1537 1538 1538 1538 1539 1538 1538 1538 1538 1538 1538 1538 1538 1538 1538 1538 1538 1538 1538 1537 1537 1537 1537 1536 1536 1535 1535 1534 1534 1534
1526 1528 1529 1530 1531 1532 1533 1533 1534 1534 1534 1535 1536 1536 1537 1537 1537 1537 1537 1537 1537 1537 1537 1537 1537 1537 1537 1537 1538 1538 1538 1538 1538 1537 1537 1536 1536 1535 1534 1534 1534 1533 1533
1525 1527 1528 1529 1530 1531 1532 1532 1533 1533 1534 1534 1535 1535 1536 1536 1536 1536 1536 1536 1536 1536 1536 1536 1536 1536 1536 1536 1536 1536 1537 1537 1537 1536 1535 1535 1534 1534 1534 1533 1533 1533 1532
1523 1525 1526 1527 1528 1529 1530 1531 1531 1532 1532 1533 1533 1534 1534 1534 1534 1534 1535 1535 1535 1534 1534 1534 1534 1534 1534 1535 1535 1535 1535 1535 1535 1535 1534 1533 1533 1533 1532 1532 1532 1532 1531